COSMOS 1823 DEB

Satellite information

Favourite Embed

Satellite Type and Status

DEBRISIN ORBIT

Key statistics

Satellite COSMOS 1823 DEB at a glance.

Uptime

14018

Days in orbit

Revolutions

≈ 14.9

Per day

Orbit

LEO

Low Earth Orbit

Inclination

74.0

Latest

Satellite identification and parameters

Extended collection of information and parameters for COSMOS 1823 DEB.

Object identification

Identified? True

Debris? True

Object name: COSMOS 1823 DEB

International designator: 1987-020EQ

Object number (NORAD): 39816

Object ID (CCSDS): 39816

Country: COMMONWEALTH OF INDEPENDENT STATES (CIS)

Current information (Y/N): Y

RCS size: SMALL

Orbital parameters

Period: 96.701 minutes

Inclination: 74.0409 deg

SMA: 6978.777 km

Apoapsis: 622.105 km

Periapsis: 579.18 km

RAAN: 342.8537 deg

Eccentricy: 0.0030754

Argument of periapsis: 234.545 deg

Mean anomaly: 125.286 deg

Mean motion: 14.89133907 rev/day

Mean motion (dot): 0.00001166 rev/day2

B* drag term: 0.00012662 1/REarth

Two-line elements (TLE)

Creation date: July 2, 2025, 2:08 a.m.

Reference frame: TEME

Reference center: EARTH

Epoch: July 1, 2025, 5:07 p.m. UTC

TLE line 0: 0 COSMOS 1823 DEB

TLE line 1: 1 39816U 87020EQ 25182.71319616 .00001166 00000-0 12662-3 0 9990

TLE line 2: 2 39816 74.0409 342.8537 0030754 234.5450 125.2860 14.89133907579300

Live tracking on map

Real-time ground track for satellite COSMOS 1823 DEB.

In-orbit conjunctions

A list of the most updated potential collisions computed for object COSMOS 1823 DEB.

Target Orbit TCA Probability of collision Miss distance Type
CZ-6A DEB LEO 2024-10-17 15:02:46 0.0007510068 117.0 (m) DEBRIS
ORBCOMM FM 40 LEO 2024-09-11 23:02:07 0.00015773 168.0 (m) PAYLOAD

Associated space launch

A satellite for the GEO-IK geodetic system

COSMOS 1823 DEB was lifted into orbit during the mission ‘Tsiklon-3 | Geo-IK 9’, on board a Tsiklon-3 space rocket.

The launch took place on Feb. 20, 1987, 4:43 a.m. from 32/2.

For more information about the launch, click the button.

Launch to space Tsiklon-3 | Geo-IK 9
Tsiklon-3 | Geo-IK 9

Agency: N/A

Status: Launch Successful

Launch date: Feb. 20, 1987, 4:43 a.m. UTC

Rocket: Tsiklon-3

Launch pad: 32/2

Location: Plesetsk Cosmodrome, Russian Federation

...

Latest news about this satellite

There are no fresh news available about this satellite. Check back as we update our databases every day.


Newsletter sign-up

Weekly statistics, charts and insights to help you stay on top of the space industry.